Regional Weather Roundup
Issued by NWS

Home | Current Version | Previous Version | Graphics & Text | Print | Product List | Glossary On
Versions: 1 2 3 4 5 6 7 8 9 10 11 12 13 14 15 16 17 18 19 20 21 22 23 24 25 26 27 28 29 30 31 32 33 34 35 36 37 38 39 40 41 42 43 44 45 46 47 48 49 50
000
ASUS43 KTOP 201008
RWRKS

WEATHER ROUNDUP FOR KANSAS
NATIONAL WEATHER SERVICE GOODLAND KS
500 AM CDT MON AUG 20 2018

NOTE:  "FAIR" INDICATES FEW OR NO CLOUDS BELOW 12,000 FEET WITH NO
SIGNIFICANT WEATHER AND/OR OBSTRUCTIONS TO VISIBILITY.

KSZ001>006-013>018-027>032-041>047-201100-
NORTHWEST KANSAS

CITY           SKY/WX    TMP DP  RH WIND       PRES   REMARKS
GOODLAND       CLEAR     53  50  89 NW16      30.15S
HAYS           CLOUDY    64  59  83 NW18      29.97R
HILL CITY      CLOUDY    62  57  83 NW17G32   30.01R
RUSSELL        CLOUDY    63  63 100 NW15      29.92S
$$

KSZ061>065-074>080-084>089-201100-
SOUTHWEST KANSAS

CITY           SKY/WX    TMP DP  RH WIND       PRES   REMARKS
DODGE CITY     CLOUDY    62  55  77 NW17G23   30.04S
ELKHART        CLEAR     63  55  77 NW13      30.17R
GARDEN CITY    LGT RAIN  60  55  83 N20       30.07S
GREAT BEND     CLOUDY    64  59  83 NW15      29.95S
LIBERAL        CLOUDY    63  55  75 NW18G25   30.10F
PRATT          CLOUDY    64  58  80 NW17      29.96R
$$

KSZ066>073-081>083-090>101-201100-
SOUTHEAST KANSAS

CITY           SKY/WX    TMP DP  RH WIND       PRES   REMARKS
CHANUTE        CLEAR     66  65  96 W6        29.84R
COFFEYVILLE    MOCLDY    69  66  90 CALM      29.81F
HUTCHINSON     CLOUDY    66  63  90 NW15      29.89S
MEDICINE LODGE   N/A     66  59  78 NW14G22   29.94R
NEWTON         CLOUDY    65  63  93 W13       29.88R
PARSONS        CLEAR     64  64 100 W3        29.85S
WICHITA INTL   PTCLDY    66  63  90 NW14      29.88R
WICHITA JABRA  MOCLDY    65  65 100 W10       29.88R
WICHITA MCCONL MOCLDY    66  63  88 NW10      29.88
WINFIELD       CLEAR     63  63 100 W6        29.89R
$$

KSZ007>012-019>026-033>040-048>060-102>105-201100-
NORTHEAST KANSAS

CITY           SKY/WX    TMP DP  RH WIND       PRES   REMARKS
CONCORDIA      CLOUDY    64  64 100 W10       29.84S
EMPORIA        CLOUDY    66  63  90 W10       29.82S
LAWRENCE       CLOUDY    68  66  93 W12       29.74S
MANHATTAN      CLOUDY    67  65  93 W9        29.80F
MARYSVILLE     CLOUDY    64  64 100 NW12      29.77F
OLATHE IND     CLOUDY    67  65  93 W14       29.75F
OLATHE EXE     CLOUDY    65  65 100 W10G18    29.74S
SALINA         CLOUDY    66  64  93 W14       29.86S
TOPEKA BILLARD CLOUDY    68  67  96 W9G18     29.76R
TOPEKA FORBES  CLOUDY    67  66  97 W15       29.77S
$$



USA.gov is the U.S. government's official web portal to all federal, state and local government web resources and services.